User: anonymous   Login
Location: Unspecified
(0.0000°N, 0.0000°E)
Time: 03:48:06
(UTC+01:00)
Language:

NOSS 2-2 (E) - Orbit

View from above orbital plane
View from above orbital plane
View from above satellite
View from above satellite

Ground track
Ground track

The orbit data is extracted from the following two-line orbital elements,

1 21809U 91076E   15062.06248112 0.00000120  00000-0  54704-4 0    01
2 21809  63.3680  97.9353 0675000  13.8302 346.1698 13.41061839    02
Epoch (UTC): 03 March 2015 01:29:58
Eccentricity: 0.0675000
inclination: 63.3680°
perigee height: 600 km
apogee height: 1610 km
right ascension of ascending node: 97.9353°
argument of perigee: 13.8302°
revolutions per day: 13.41061839
mean anomaly at epoch: 346.1698°
orbit number at epoch: 0

The dashed part of the orbit path shows where the satellite is in the earth's shadow,  

DLR